Location: Port Huron
(43.0000°N, 82.2400°W)
Time: 23:19:17
(UTC-04:00)

ISS - Visible Passes

Search period start: 25 September 2018 00:00
Search period end: 05 October 2018 00:00
Orbit: 403 x 408 km, 51.6° (Epoch: 26 September)

Date Brightness Start Highest point End Pass type
(mag) Time Alt. Az. Time Alt. Az. Time Alt. Az.
25 Sep -2.1 21:13:15 10° W 21:16:11 29° NNW 21:16:51 26° N visible
26 Sep -2.7 20:21:00 10° W 20:24:10 41° NNW 20:27:07 11° NE visible
26 Sep -0.7 21:58:52 10° NW 21:59:48 14° NW 21:59:48 14° NW visible
27 Sep -1.7 21:06:33 10° WNW 21:09:08 21° NNW 21:09:58 19° N visible
28 Sep -1.9 20:14:11 10° WNW 20:17:01 26° NNW 20:19:52 10° NE visible
28 Sep -0.7 21:51:56 10° NW 21:52:44 14° NNW 21:52:44 14° NNW visible
29 Sep -1.6 20:59:44 10° NW 21:02:07 18° N 21:02:47 17° NNE visible
30 Sep -1.6 20:07:24 10° WNW 20:09:55 20° N 20:12:27 10° NE visible
30 Sep -0.8 21:44:41 10° NW 21:45:28 14° NNW 21:45:28 14° NNW visible
01 Oct -1.7 20:52:39 10° NW 20:55:04 18° N 20:55:27 18° NNE visible
02 Oct -1.6 20:00:28 10° NW 20:02:50 18° N 20:05:12 10° NE visible
02 Oct -0.9 21:37:12 10° NW 21:38:06 16° NNW 21:38:06 16° NNW visible
03 Oct -2.0 20:45:16 10° NW 20:47:55 22° NNE 20:48:04 22° NNE visible
04 Oct -1.8 19:53:15 10° NW 19:55:42 19° N 19:58:03 10° NE visible
04 Oct -1.2 21:29:35 10° NW 21:30:43 19° NW 21:30:43 19° NW visible
